Regional Weather Roundup
Issued by NWS

Home | Current Version | Previous Version | Graphics & Text | Print | Product List | Glossary On
Versions: 1 2 3 4 5 6 7 8 9 10 11 12 13 14 15 16 17 18 19 20 21 22 23 24 25 26 27 28 29 30 31 32 33 34 35 36 37 38 39 40 41 42 43 44 45 46 47 48 49 50
000
ASUS43 KBIS 212210
RWRND

NORTH DAKOTA REGIONAL WEATHER ROUNDUP
NATIONAL WEATHER SERVICE BISMARCK ND
500 PM CDT THU SEP 21 2017

NOTE: "FAIR" INDICATES FEW OR NO CLOUDS BELOW 12,000 FEET WITH NO
SIGNIFICANT WEATHER AND/OR OBSTRUCTIONS TO VISIBILITY.


NDZ001>003-009>011-017-212300-
NORTHWEST NORTH DAKOTA

CITY           SKY/WX    TMP DP  RH WIND       PRES   REMARKS
WILLISTON      PTSUNNY   63  38  39 NW9       29.78R
MINOT          SUNNY     71  45  39 N10       29.70R
MINOT AFB      MOSUNNY   68  44  42 N8        29.70R
$$

NDZ018>021-031>035-040>046-212300-
SOUTHWEST NORTH DAKOTA

CITY           SKY/WX    TMP DP  RH WIND       PRES   REMARKS
BISMARCK       SUNNY     79  52  38 NW10      29.65R
DICKINSON      SUNNY     69  42  37 NW13      29.72S
GARRISON         N/A     72  45  37 NW16G26   29.69R
HETTINGER ARPT SUNNY     71  41  33 N16       29.73R
$$

NDZ004>008-012>016-024-026-027-054-212300-
NORTHEAST NORTH DAKOTA

CITY           SKY/WX    TMP DP  RH WIND       PRES   REMARKS
GRAND FORKS    MOSUNNY   81  47  30 SE18      29.67F
GRND FRKS AFB  SUNNY     80  45  29 S14       29.67F
DEVILS LAKE    CLOUDY    75  57  53 S7        29.65F
$$

NDZ022-023-025-028>030-036>039-047>053-212300-
SOUTHEAST NORTH DAKOTA

CITY           SKY/WX    TMP DP  RH WIND       PRES   REMARKS
FARGO          MOSUNNY   80  54  40 SE12G20   29.67F
JAMESTOWN      SUNNY     82  59  45 S16G24    29.63F
$$





USA.gov is the U.S. government's official web portal to all federal, state and local government web resources and services.